Satellite-Ground Cal/Val Site Overpasses Predictions

Prediction of Satellite NPP Overpassing Cal/Val Site: Antarctic Dome C

Ground Cal/Val Site Location: Latitude: -75.10, Longitude: 123.35; Satellite-Ground Site NADIR distance within 100 km.

Table of predicted overpasses for the next 14.0 days since TLE Epoch: 10/18/2019
Interval Starting Time Ending Time Minimum Distance Time Minimum Distance (km)
1 10/19/2019 14:36:29 10/19/2019 14:36:43 10/19/2019 14:36:36 87.49
2 10/20/2019 07:38:02 10/20/2019 07:38:29 10/20/2019 07:38:15 38.33
3 10/21/2019 07:19:15 10/21/2019 07:19:36 10/21/2019 07:19:25 71.71
4 10/23/2019 15:01:29 10/23/2019 15:01:53 10/23/2019 15:01:41 56.73
5 10/24/2019 14:42:39 10/24/2019 14:43:04 10/24/2019 14:42:51 52.47
6 10/25/2019 07:44:20 10/25/2019 07:44:40 10/25/2019 07:44:30 73.67
7 10/26/2019 07:25:26 10/26/2019 07:25:54 10/26/2019 07:25:40 34.16
8 10/28/2019 15:07:52 10/28/2019 15:08:01 10/28/2019 15:07:56 94.56
9 10/29/2019 14:48:52 10/29/2019 14:49:21 10/29/2019 14:49:06 16.75


NCC Satellite Cal/Val Overpasses Prediction Service
